User: anonymous   Login
Location: Bosdarros
(43.2167°N, 0.3667°W)
Time: 00:11:08
(UTC+00:00)
Language:

Cosmos 2219 - Orbit

View from above orbital plane
View from above orbital plane
View from above satellite
View from above satellite

Ground track
Ground track

The orbit data is extracted from the following two-line orbital elements,

1 22219U 92076A   21174.56544230 -.00000048  00000-0 -37749-6 0  9994
2 22219  71.0618  12.4554 0020291 304.6417  55.2792 14.13669023475259
Epoch (UTC): 23 June 2021 13:34:14
Eccentricity: 0.0020291
inclination: 71.0618°
perigee height: 832 km
apogee height: 861 km
right ascension of ascending node: 12.4554°
argument of perigee: 304.6417°
revolutions per day: 14.13669023
mean anomaly at epoch: 55.2792°
orbit number at epoch: 47525

The dashed part of the orbit path shows where the satellite is in the earth's shadow,  

DLR